Lid_Strength_Index
4 6 7 6 6 6 6 7 8 6 5 6 6 6 6 5 5 5 5 4 5 4 3 2 2 1 2 1 1 1 1 1 0 1 1 1 1 0 0 -0 -0 -1 -1 -1
6 7 5 5 5 6 6 7 7 6 5 6 6 6 6 5 5 5 5 4 4 4 3 2 2 2 2 1 1 1 1 1 1 1 1 1 1 0 0 0 -0 -1 -1 -1
7 6 5 5 6 7 7 7 7 7 6 5 6 9 9 7 6 5 4 4 4 4 4 3 2 2 2 2 2 1 1 1 1 0 0 0 0 0 0 1 1 0 -0 -1
6 5 5 6 7 6 8 6 6 7 7 9 6 13 12 10 9 7 5 4 4 4 3 3 3 2 2 2 1 1 1 1 0 0 1 1 2 2 1 1 1 0 -0 -0
7 6 6 7 6 5 7 5 6 7 8 8 10 12 12 9 11 9 5 4 4 4 3 3 3 2 1 1 1 1 1 1 0 0 1 1 2 1 1 1 1 1 0 -0
5 4 5 5 5 5 5 6 6 7 7 11 11 13 15 12 10 8 5 4 4 4 3 3 2 2 2 1 1 1 1 1 0 1 1 1 2 2 2 2 2 1 1 0
6 6 5 5 6 5 6 7 10 11 11 11 8 11 11 8 7 5 5 5 4 4 3 3 3 3 2 2 1 1 1 1 0 0 1 1 1 1 2 2 2 2 1 1
9 9 6 5 6 7 7 7 10 13 13 13 8 14 10 6 5 4 4 4 4 4 3 3 3 3 2 2 1 1 1 1 0 1 1 1 1 1 1 1 1 1 1 1
8 8 5 5 5 5 7 8 6 9 9 11 11 10 9 8 6 5 5 4 4 4 3 3 3 3 2 2 2 1 1 1 1 1 1 1 1 1 1 1 1 1 0 1
7 9 6 5 5 5 6 6 9 8 13 15 13 14 16 12 9 6 5 5 5 4 3 3 3 2 2 2 1 1 1 1 1 1 0 1 1 1 1 1 1 1 1 0
6 7 10 6 7 7 7 8 7 8 11 18 19 17 9 9 8 6 5 5 4 4 4 3 3 2 2 1 1 1 1 1 1 1 0 1 1 1 1 1 1 1 0 0
5 7 10 8 5 5 6 7 7 10 14 11 11 16 7 7 5 5 5 5 4 4 3 3 3 2 2 2 1 1 1 1 1 1 1 1 1 1 1 1 1 0 1 0
5 7 10 12 7 6 7 6 7 7 7 9 13 13 5 5 5 5 5 5 4 4 3 3 3 3 2 2 2 1 1 1 1 0 1 1 1 1 1 1 1 0 1 0
3 7 8 12 12 9 9 7 7 7 9 9 11 8 7 7 6 5 5 5 4 4 4 4 4 3 3 2 2 1 1 1 1 1 1 1 1 1 1 1 1 1 0 1
5 8 7 9 9 9 8 8 7 8 7 9 8 8 8 6 6 5 5 5 5 4 5 4 4 3 3 2 2 1 1 1 1 1 1 1 1 0 0 1 1 0 1 0
5 8 8 10 8 8 8 7 7 7 7 7 7 8 6 5 5 5 5 5 5 5 5 4 3 3 2 2 2 1 1 1 0 1 1 0 1 1 1 1 1 0 1 1
6 7 8 11 9 9 12 9 7 7 7 7 8 8 6 6 6 6 5 5 5 5 4 4 3 3 2 2 1 1 1 -0 1 1 1 1 1 1 1 1 1 1 1 1
6 8 9 12 11 16 9 6 7 7 6 5 5 5 5 6 5 4 4 4 4 4 3 3 3 2 2 1 1 0 0 0 -0 0 0 0 0 1 1 1 1 1 1 1
5 7 10 14 17 13 10 8 9 8 7 5 5 6 5 5 5 5 4 3 3 3 3 2 2 2 1 0 0 1 0 -0 0 1 1 -0 -0 1 1 1 1 1 1 1
6 6 8 12 15 16 10 6 4 5 9 5 5 5 6 5 8 6 4 4 3 2 2 2 2 1 2 2 1 2 2 1 2 1 0 0 0 1 1 1 1 1 1 1
11 10 10 10 12 11 7 5 4 10 10 5 4 5 5 6 6 5 5 3 2 2 2 2 1 2 1 1 1 1 1 2 1 1 0 1 1 1 1 1 1 1 1 1
13 14 11 9 10 13 5 5 8 6 4 4 4 4 6 5 4 4 3 3 3 3 2 2 1 1 1 1 0 1 2 1 1 1 1 1 1 1 1 1 1 1 1 2
14 11 10 8 9 5 4 5 4 4 4 4 4 4 4 4 4 4 5 3 3 2 2 1 2 1 0 1 1 1 1 0 1 1 1 1 1 1 1 1 2 2 2 2
8 5 7 7 5 5 5 4 3 3 3 3 3 3 3 4 4 3 3 3 3 2 2 2 2 2 2 1 1 0 1 1 1 1 1 1 1 1 1 1 1 2 2 2
6 5 7 7 5 4 4 4 3 3 3 3 3 3 3 3 3 3 3 3 2 2 1 2 2 2 2 1 1 1 1 1 1 1 2 2 1 1 1 1 1 1 1 1
5 5 7 7 5 5 5 3 3 4 4 3 3 3 3 3 3 2 2 2 2 2 2 2 2 2 2 1 1 1 0 1 1 2 2 2 2 2 1 2 2 3 6 7